Total_Precipitation_Accumulation
1.19 1.41 1.26 0.86 0.81 0.70 0.61 0.67 0.57 0.40 0.38 0.51 0.52 0.42 0.30 0.29 0.36 0.44 0.48 0.53 0.49 0.53 0.59 0.64 0.75 0.92 1.10 1.15 1.20 1.34 1.39 1.56 1.78 1.98 2.14 2.18 2.23 2.16 2.11 2.03 1.96 1.91 1.94 1.95
1.30 1.17 0.68 0.50 0.58 0.68 0.72 0.80 0.63 0.44 0.37 0.55 0.56 0.45 0.33 0.31 0.35 0.43 0.44 0.52 0.54 0.54 0.61 0.68 0.78 0.91 1.14 1.20 1.19 1.32 1.44 1.53 1.61 1.75 1.91 2.00 2.13 2.19 2.14 2.06 2.08 1.96 1.88 1.85
0.99 0.69 0.41 0.59 0.75 0.88 0.81 0.72 0.59 0.54 0.51 0.61 0.69 0.65 0.40 0.34 0.32 0.39 0.44 0.51 0.62 0.65 0.65 0.69 0.77 0.89 1.14 1.28 1.26 1.27 1.38 1.53 1.61 1.75 1.97 2.09 2.28 2.35 2.39 2.18 2.05 2.00 1.95 1.85
0.71 0.44 0.45 0.70 0.82 0.91 0.86 0.49 0.50 0.58 0.87 0.98 0.85 0.99 0.51 0.36 0.34 0.40 0.46 0.50 0.63 0.67 0.66 0.72 0.74 0.84 1.02 1.20 1.31 1.33 1.43 1.56 1.61 1.79 1.99 2.01 2.16 2.20 2.15 2.02 1.93 1.87 1.89 1.87
0.85 0.49 0.51 0.67 0.61 0.69 0.72 0.46 0.57 0.72 0.97 1.14 0.85 0.95 0.56 0.32 0.40 0.41 0.45 0.49 0.58 0.66 0.64 0.71 0.74 0.74 0.87 1.02 1.20 1.32 1.46 1.61 1.67 1.72 1.90 1.98 1.94 2.01 2.10 2.14 2.06 1.94 1.90 1.84
0.67 0.48 0.55 0.51 0.41 0.50 0.66 0.76 0.93 1.08 1.53 1.79 0.76 0.73 0.60 0.50 0.59 0.49 0.45 0.50 0.60 0.66 0.69 0.71 0.70 0.69 0.81 0.96 1.12 1.25 1.38 1.51 1.64 1.67 1.78 1.96 1.92 1.89 1.99 2.15 2.20 2.12 2.00 1.90
0.84 0.62 0.52 0.46 0.63 0.79 1.04 1.56 2.31 2.46 2.44 1.49 0.43 0.56 0.68 0.54 0.52 0.58 0.57 0.58 0.61 0.65 0.71 0.76 0.65 0.69 0.74 0.86 1.03 1.17 1.33 1.39 1.47 1.56 1.65 1.73 1.89 1.87 1.84 1.87 1.97 2.12 2.07 1.92
0.98 0.83 0.60 0.53 0.71 1.02 1.13 1.41 1.89 1.86 1.26 0.60 0.35 0.57 0.62 0.44 0.38 0.39 0.43 0.53 0.57 0.61 0.65 0.70 0.66 0.68 0.71 0.76 0.88 1.04 1.17 1.33 1.46 1.52 1.57 1.62 1.72 1.86 1.80 1.77 1.71 1.82 1.90 1.78
0.99 0.71 0.43 0.40 0.41 0.64 1.00 1.11 0.99 1.33 0.95 0.66 0.55 0.51 0.42 0.22 0.22 0.27 0.33 0.45 0.58 0.66 0.70 0.67 0.67 0.70 0.69 0.75 0.81 0.96 1.05 1.20 1.41 1.55 1.57 1.60 1.65 1.74 1.76 1.72 1.70 1.69 1.71 1.72
1.10 0.86 0.42 0.38 0.50 0.66 0.79 0.97 1.21 1.72 1.46 0.84 0.53 0.51 0.58 0.41 0.40 0.35 0.38 0.46 0.59 0.69 0.76 0.74 0.70 0.75 0.74 0.75 0.79 0.85 1.01 1.12 1.26 1.47 1.63 1.64 1.61 1.60 1.69 1.75 1.77 1.73 1.70 1.71
1.08 1.13 0.69 0.59 0.82 0.88 0.86 1.17 1.47 1.58 1.23 1.01 0.69 0.68 0.71 0.61 0.59 0.52 0.49 0.52 0.62 0.71 0.79 0.74 0.68 0.69 0.73 0.76 0.84 0.88 0.97 1.08 1.19 1.30 1.48 1.59 1.59 1.61 1.65 1.70 1.68 1.72 1.72 1.71
1.02 1.32 0.91 0.54 0.51 0.52 0.73 1.01 1.28 1.62 1.19 0.78 0.73 0.71 0.55 0.51 0.55 0.50 0.49 0.49 0.55 0.65 0.72 0.72 0.66 0.66 0.73 0.82 0.89 0.97 1.00 0.99 1.08 1.20 1.32 1.47 1.55 1.57 1.61 1.60 1.64 1.70 1.71 1.70
1.46 1.88 1.55 1.01 0.83 0.76 0.87 0.81 0.89 1.13 1.15 0.80 0.69 0.61 0.37 0.33 0.36 0.37 0.43 0.47 0.51 0.61 0.69 0.73 0.74 0.71 0.75 0.83 0.90 0.97 1.03 0.97 0.99 1.16 1.28 1.41 1.51 1.49 1.49 1.44 1.53 1.71 1.81 1.78
1.82 1.92 1.35 1.09 0.91 0.84 0.77 0.61 0.63 1.03 1.29 0.73 0.45 0.43 0.30 0.27 0.30 0.34 0.44 0.48 0.51 0.56 0.62 0.71 0.82 0.79 0.74 0.78 0.83 0.86 0.97 1.01 1.00 1.05 1.21 1.34 1.46 1.42 1.37 1.34 1.36 1.52 1.69 1.79
1.56 1.55 0.69 0.37 0.31 0.40 0.47 0.43 0.46 0.66 0.65 0.59 0.37 0.34 0.36 0.36 0.41 0.43 0.47 0.47 0.48 0.49 0.56 0.71 0.81 0.81 0.83 0.85 0.87 0.84 0.87 0.98 1.04 1.01 1.10 1.19 1.31 1.39 1.35 1.30 1.31 1.42 1.54 1.59
1.43 1.42 0.71 0.39 0.23 0.30 0.37 0.30 0.31 0.35 0.32 0.31 0.24 0.28 0.32 0.33 0.33 0.35 0.36 0.41 0.46 0.47 0.52 0.59 0.67 0.75 0.85 0.93 0.95 0.93 0.90 0.95 1.02 1.00 1.05 1.10 1.24 1.37 1.36 1.28 1.32 1.45 1.55 1.55
1.42 1.44 1.25 0.70 0.30 0.53 0.61 0.38 0.33 0.35 0.33 0.31 0.36 0.37 0.31 0.29 0.32 0.39 0.39 0.41 0.46 0.47 0.48 0.49 0.59 0.72 0.82 0.91 0.94 0.96 0.93 0.96 1.02 1.02 1.05 1.10 1.22 1.29 1.34 1.32 1.34 1.45 1.56 1.56
1.20 1.40 1.71 1.16 0.79 1.07 0.57 0.28 0.28 0.33 0.35 0.33 0.33 0.29 0.30 0.34 0.36 0.43 0.43 0.47 0.48 0.49 0.50 0.50 0.58 0.70 0.75 0.82 0.86 0.91 0.87 0.99 1.05 1.04 1.04 1.08 1.16 1.19 1.29 1.33 1.35 1.47 1.54 1.51
0.68 1.30 1.93 1.59 1.10 0.57 0.32 0.28 0.38 0.47 0.47 0.36 0.28 0.21 0.21 0.25 0.32 0.41 0.38 0.43 0.49 0.50 0.54 0.55 0.59 0.68 0.68 0.75 0.81 0.86 0.82 0.90 0.98 1.03 0.99 1.01 1.08 1.12 1.21 1.28 1.35 1.44 1.54 1.50
0.69 1.27 2.09 1.75 1.26 0.61 0.39 0.26 0.29 0.43 0.61 0.35 0.27 0.25 0.24 0.28 0.45 0.46 0.40 0.40 0.41 0.42 0.47 0.54 0.57 0.61 0.63 0.69 0.73 0.76 0.82 0.84 0.92 0.98 0.90 0.94 1.01 1.04 1.13 1.20 1.28 1.36 1.39 1.42
1.13 1.77 2.02 1.45 1.15 0.47 0.30 0.26 0.32 0.67 0.75 0.39 0.33 0.34 0.34 0.44 0.52 0.46 0.43 0.43 0.45 0.45 0.45 0.49 0.52 0.57 0.63 0.67 0.68 0.71 0.79 0.85 0.88 0.96 0.89 0.92 0.95 1.00 1.08 1.15 1.17 1.25 1.32 1.35
0.87 1.22 1.21 1.11 1.24 0.62 0.33 0.39 0.66 0.78 0.44 0.35 0.34 0.34 0.37 0.38 0.36 0.35 0.39 0.44 0.51 0.50 0.45 0.48 0.51 0.55 0.59 0.62 0.66 0.67 0.72 0.79 0.86 0.91 0.90 0.96 1.00 1.01 1.04 1.09 1.09 1.14 1.25 1.32
0.63 0.85 0.95 0.90 0.75 0.49 0.42 0.52 0.55 0.47 0.40 0.32 0.33 0.34 0.36 0.35 0.34 0.38 0.41 0.45 0.52 0.53 0.49 0.50 0.54 0.54 0.57 0.61 0.66 0.72 0.75 0.77 0.85 0.89 0.88 0.94 1.03 1.06 1.07 1.06 1.06 1.11 1.19 1.27
0.52 0.52 0.65 0.60 0.43 0.33 0.32 0.33 0.32 0.31 0.32 0.31 0.31 0.34 0.36 0.37 0.34 0.40 0.42 0.46 0.49 0.51 0.53 0.55 0.57 0.57 0.59 0.62 0.68 0.75 0.79 0.77 0.83 0.87 0.87 0.92 0.98 1.04 1.08 1.04 0.98 1.00 1.10 1.23
0.43 0.47 0.53 0.47 0.31 0.29 0.27 0.26 0.26 0.24 0.22 0.22 0.23 0.25 0.29 0.32 0.35 0.40 0.43 0.46 0.52 0.54 0.57 0.58 0.60 0.63 0.65 0.64 0.70 0.77 0.79 0.78 0.82 0.80 0.80 0.85 0.88 0.97 1.07 1.06 1.00 0.99 1.00 1.20
0.30 0.39 0.50 0.44 0.31 0.37 0.31 0.24 0.25 0.25 0.23 0.24 0.25 0.23 0.22 0.27 0.33 0.37 0.39 0.43 0.52 0.58 0.58 0.60 0.61 0.64 0.70 0.69 0.72 0.76 0.79 0.76 0.76 0.77 0.76 0.78 0.82 0.88 0.97 1.01 1.04 1.16 1.15 1.18